TimeMST,TemperatureF,Dew PointF,Humidity,Sea Level PressureIn,VisibilityMPH,Wind Direction,Wind SpeedMPH,Gust SpeedMPH,PrecipitationIn,Events,Conditions,WindDirDegrees,DateUTC
12:15 AM,-0.4,-2.2,92,30.14,10.0,North,11.5,-,N/A,,Clear,10,2013-02-25 07:15:00
12:35 AM,-2.2,-4.0,92,30.14,10.0,North,8.1,-,N/A,,Clear,360,2013-02-25 07:35:00
12:55 AM,-2.2,-5.8,85,30.14,10.0,North,11.5,-,N/A,,Clear,10,2013-02-25 07:55:00
1:15 AM,-2.2,-4.0,92,30.15,10.0,North,13.8,-,N/A,,Clear,10,2013-02-25 08:15:00
1:35 AM,-2.2,-4.0,92,30.15,10.0,North,15.0,-,N/A,,Clear,10,2013-02-25 08:35:00
1:55 AM,-2.2,-4.0,92,30.15,10.0,North,15.0,-,N/A,,Clear,10,2013-02-25 08:55:00
2:15 AM,-0.4,-2.2,92,30.14,10.0,NNE,12.7,-,N/A,,Clear,20,2013-02-25 09:15:00
2:35 AM,-0.4,-2.2,92,30.14,10.0,NNE,8.1,-,N/A,,Clear,20,2013-02-25 09:35:00
2:55 AM,-0.4,-2.2,92,30.13,10.0,North,15.0,-,N/A,,Clear,10,2013-02-25 09:55:00
3:15 AM,-0.4,-2.2,92,30.14,10.0,NNE,3.5,-,N/A,,Partly Cloudy,20,2013-02-25 10:15:00
3:35 AM,-0.4,-2.2,92,30.14,10.0,NNE,4.6,-,N/A,,Clear,30,2013-02-25 10:35:00
3:55 AM,-0.4,-4.0,85,30.14,10.0,NNE,6.9,-,N/A,,Clear,30,2013-02-25 10:55:00
4:15 AM,-4.0,-5.8,92,30.14,10.0,North,12.7,-,N/A,,Clear,10,2013-02-25 11:15:00
4:55 AM,-2.2,-5.8,85,30.14,10.0,NNE,6.9,-,N/A,,Clear,20,2013-02-25 11:55:00
5:15 AM,-2.2,-5.8,85,30.13,10.0,North,8.1,-,N/A,,Partly Cloudy,360,2013-02-25 12:15:00
5:35 AM,-4.0,-5.8,92,30.13,10.0,North,10.4,-,N/A,,Partly Cloudy,360,2013-02-25 12:35:00
5:55 AM,-2.2,-5.8,85,30.13,10.0,North,9.2,-,N/A,,Clear,10,2013-02-25 12:55:00
6:15 AM,-4.0,-5.8,92,30.13,10.0,NNE,9.2,-,N/A,,Clear,20,2013-02-25 13:15:00
6:35 AM,-2.2,-5.8,85,30.13,10.0,North,9.2,-,N/A,,Mostly Cloudy,10,2013-02-25 13:35:00
6:51 AM,-2.2,-5.8,85,30.12,10.0,North,9.2,-,N/A,,Mostly Cloudy,10,2013-02-25 13:51:00
6:55 AM,-2.2,-5.8,85,30.12,10.0,North,8.1,-,N/A,,Mostly Cloudy,10,2013-02-25 13:55:00
7:51 AM,1.4,-0.4,92,30.11,10.0,North,5.8,-,N/A,,Mostly Cloudy,10,2013-02-25 14:51:00
8:53 AM,5.0,1.4,85,30.10,10.0,North,6.9,-,N/A,,Mostly Cloudy,350,2013-02-25 15:53:00
9:55 AM,6.8,1.4,79,30.07,10.0,NNE,4.6,-,N/A,,Scattered Clouds,20,2013-02-25 16:55:00
10:51 AM,10.4,3.2,73,30.05,10.0,East,3.5,-,N/A,,Scattered Clouds,100,2013-02-25 17:51:00
11:55 AM,12.2,6.8,79,30.02,10.0,East,3.5,-,N/A,,Mostly Cloudy,100,2013-02-25 18:55:00
12:51 PM,15.8,8.6,73,29.99,10.0,East,4.6,-,N/A,,Overcast,90,2013-02-25 19:51:00
1:59 PM,17.6,10.4,73,29.94,10.0,East,3.5,-,N/A,,Mostly Cloudy,90,2013-02-25 20:59:00
2:51 PM,19.4,10.4,68,29.92,10.0,Calm,Calm,-,N/A,,Mostly Cloudy,0,2013-02-25 21:51:00
2:59 PM,17.6,10.4,73,29.94,10.0,East,3.5,-,N/A,,Mostly Cloudy,90,2013-02-25 21:59:00
4:51 PM,19.4,12.2,74,29.89,10.0,East,4.6,-,N/A,,Overcast,100,2013-02-25 23:51:00
5:56 PM,23.0,15.8,74,29.88,10.0,South,10.4,-,N/A,,Overcast,180,2013-02-26 00:56:00
6:52 PM,21.2,15.8,80,29.89,10.0,South,12.7,-,N/A,,Overcast,170,2013-02-26 01:52:00
7:54 PM,21.2,15.8,80,29.89,10.0,SSW,8.1,-,N/A,,Mostly Cloudy,210,2013-02-26 02:54:00
8:54 PM,19.4,17.6,93,29.90,10.0,South,6.9,-,N/A,,Overcast,170,2013-02-26 03:54:00
9:35 PM,19.4,17.6,93,29.90,8.0,SSW,5.8,-,N/A,,Overcast,200,2013-02-26 04:35:00
9:55 PM,17.6,15.8,93,29.90,7.0,SSW,5.8,-,N/A,,Overcast,200,2013-02-26 04:55:00
10:15 PM,17.6,15.8,93,29.90,10.0,SSW,4.6,-,N/A,,Overcast,210,2013-02-26 05:15:00
10:36 PM,15.8,15.8,100,29.91,10.0,Calm,Calm,-,N/A,,Overcast,0,2013-02-26 05:36:00
10:55 PM,17.6,17.6,100,29.91,7.0,Calm,Calm,-,N/A,,Overcast,0,2013-02-26 05:55:00
11:15 PM,17.6,17.6,100,29.91,3.0,SW,4.6,-,N/A,,Overcast,230,2013-02-26 06:15:00
11:35 PM,17.6,17.6,100,29.90,9.0,SW,4.6,-,N/A,,Overcast,220,2013-02-26 06:35:00